Regional Weather Roundup
Issued by NWS

Home | Current Version | Previous Version | Graphics & Text | Print | Product List | Glossary Off
Versions: 1 2 3 4 5 6 7 8 9 10 11 12 13 14 15 16 17 18 19 20 21 22 23 24 25 26 27 28 29 30 31 32 33 34 35 36 37 38 39 40 41 42 43 44 45 46 47 48 49 50

000
ASUS43 KDMX 171906
RWRIA

WEATHER ROUNDUP FOR IOWA
NATIONAL WEATHER SERVICE DES MOINES IA
200 PM CDT TUE OCT 17 2017

NOTE: "FAIR" INDICATES FEW OR NO CLOUDS BELOW 12,000 FEET WITH NO
SIGNIFICANT WEATHER AND/OR OBSTRUCTIONS TO VISIBILITY.

* - THESE STATIONS ARE NOT NWS STATIONS...THUS NOT UNDER NWS
QUALITY CONTROL.  THEY ALSO DO NOT REPORT WEATHER SUCH
AS PRECIPITATION OR FOG.

IAZ001>003-012>014-020>022-031>034-043>046-172000-
   NORTHWEST IOWA

CITY           SKY/WX    TMP DP  RH WIND       PRES   REMARKS
CARROLL *      SUNNY     72  46  40 SW14G21   30.04F
CHEROKEE *     SUNNY     71  46  40 SW3       30.02F
DENISON *      SUNNY     68  43  40 S7G16     30.05F
LE MARS *      SUNNY     75  41  29 VRB6      30.01F
ORANGE CITY *  SUNNY     75  41  29 SW6       30.02F
SHELDON *      SUNNY     75  37  25 SW9       30.00F
SIOUX CITY     SUNNY     71  47  42 SE7       30.02F
SPENCER        SUNNY     75  39  27 VRB7      30.01F
STORM LAKE *   SUNNY     70  43  37 SW9       30.03F
$$

IAZ055>058-069>071-079>083-090>094-172000-
   SOUTHWEST IOWA

CITY           SKY/WX    TMP DP  RH WIND       PRES   REMARKS
ATLANTIC *     SUNNY     68  43  40 S14       30.05F
AUDUBON *      SUNNY     70  45  40 S10       30.06F
CLARINDA *     SUNNY     72  45  37 S13G20    30.09F
COUNCIL BLFS * SUNNY     66  46  48 SW8G16    30.06F
CRESTON *      SUNNY     70  43  37 S18       30.09F
HARLAN  *      SUNNY     68  45  42 S8G15     30.08F
LAMONI         SUNNY     70  44  39 SW14      30.10F
RED OAK *      SUNNY     70  45  40 S12G20    30.07F
SHENANDOAH *   SUNNY     72  43  35 S12G17    30.07F
$$

IAZ047>049-059>061-072>074-084-172000-
   CENTRAL IOWA

CITY           SKY/WX    TMP DP  RH WIND       PRES   REMARKS
AMES           SUNNY     70  46  42 SW14      30.06F
ANKENY *       SUNNY     72  45  37 SW13G20   30.07F
BOONE *        SUNNY     72  43  35 SW13      30.05F
CHARITON *     SUNNY     70  43  37 SW12G20   30.10F
DES MOINES     SUNNY     72  43  35 S15G22    30.06F
GRINNELL*      SUNNY     70  40  33 SW15G23   30.10F
KNOXVILLE *    SUNNY     72  43  35 S15       30.08F HAZE
MARSHALLTOWN   SUNNY     71  43  36 SW18G24   30.06F
NEWTON *       SUNNY     72  43  35 S14G24    30.08F
PELLA *        SUNNY     71  42  35 SW13G18   30.10F
PERRY *          N/A     73  39  29 S12G17    30.05F
$$

IAZ004>006-015-016-023>025-035-036-172000-
   NORTH CENTRAL IOWA

CITY           SKY/WX    TMP DP  RH WIND       PRES   REMARKS
ALGONA *       SUNNY     70  45  40 S10       30.02F
CLARION *      SUNNY     70  45  40 SW13G21   30.04F
ESTHERVILLE    SUNNY     72  41  32 SW9       30.01F
FORT DODGE *   SUNNY     70  45  40 SW9       30.04F
MASON CITY     SUNNY     69  44  40 S7G17     30.05F
FOREST CITY *    N/A     68  43  40 S12       30.03F
WEBSTER CITY * SUNNY     72  43  35 VRB7G15   30.03F
IOWA FALLS *     N/A     70  46  42 SW8       30.07F
$$

IAZ007>011-017>019-026>030-037>042-050>054-066-172000-
   NORTHEAST IOWA

CITY           SKY/WX    TMP DP  RH WIND       PRES   REMARKS
CEDAR RAPIDS   SUNNY     71  42  35 SW15G24   30.09F
CHARLES CITY * SUNNY     70  41  35 S9        30.05F
CLINTON *      SUNNY     70  45  40 SW17G26   30.13F
DECORAH *      SUNNY     68  43  40 SW9       30.04F
DUBUQUE        SUNNY     68  45  43 SW14      30.10F
MONTICELLO *   SUNNY     72  43  35 SW10G20   30.09F
OELWEIN *      SUNNY     70  45  40 SW15G22   30.06F
WATERLOO       SUNNY     70  43  37 SW14      30.05F
$$

IAZ064-065-067-068-078-172000-
   EAST CENTRAL IOWA

CITY           SKY/WX    TMP DP  RH WIND       PRES   REMARKS
DAVENPORT      SUNNY     69  42  37 S14G23    30.15F
IOWA CITY      SUNNY     72  42  34 SW13      30.12F
MUSCATINE *    SUNNY     72  43  35 SW17      30.13F
QUAD CITIES    SUNNY     70  43  37 SW16      30.13F
$$

IAZ062-063-075>077-085>089-095>099-172000-
   SOUTHEAST IOWA

CITY           SKY/WX    TMP DP  RH WIND       PRES   REMARKS
BURLINGTON     SUNNY     70  44  39 S13       30.16F
FAIRFIELD *    SUNNY     70  41  35 S15G22    30.12F
FORT MADISON * SUNNY     72  43  35 S12       30.17F
KEOKUK *       SUNNY     70  43  37 S15       30.16F
OSKALOOSA *      N/A     70  43  37 SW16      30.11F
OTTUMWA        SUNNY     71  44  37 SW12      30.11F
WASHINGTON *   SUNNY     72  43  35 SW15G23   30.13F
$$

ABBREVIATIONS USED IN REMARKS
   TC - TEMPERATURES IN CELSIUS
  WCI - WIND CHILL INDEX
   HX - HEAT INDEX
  VSB - VISIBILITY
$$





USA.gov is the U.S. government's official web portal to all federal, state and local government web resources and services.